Other Public Products
Issued by NWS Grand Forks, ND

Home | Current Version | Previous Version | Text Only | Print | Product List | Glossary Off
Versions: 1 2 3 4 5 6 7 8 9 10 11 12 13 14 15 16 17 18 19 20 21 22 23 24 25 26 27 28 29 30 31 32 33 34 35 36 37 38 39 40 41 42 43 44 45 46 47 48 49 50

733
FPUS83 KFGF 101610
OPUFGF
PRAIRIE TO PINES WEATHER ROUNDUP
NATIONAL WEATHER SERVICE EASTERN NORTH DAKOTA/GRAND FORKS ND
1000 AM CST SAT DEC 10 2016

 **SATELLITE DATA USED TO AUGMENT SKY COVER AT AUTOMATED STATIONS**
 *****  WEATHER ACROSS EASTERN NORTH DAKOTA  *****

CITY           SKY/WX    TMP DP  RH WIND       PRES   REMARKS
GRAND FORKS    CLOUDY    -6 -13  71 NE5       30.46F WCI -17
GRAND FORKS AF CLOUDY    -9 -14  77 CALM      30.45F
GRAND CITY NWS NOT AVBL
BUXTON         NOT AVBL
DEVILS LAKE    CLOUDY   -12 -16  82 CALM      30.36F
FARGO          CLOUDY    -2  -9  72 E5        30.44F WCI -12
WAHPETON ARPT  CLOUDY    -4  -9  77 SE3       30.45S
$$

 *****  WEATHER ACROSS CENTRAL AND WESTERN NORTH DAKOTA  *****

CITY           SKY/WX    TMP DP  RH WIND       PRES   REMARKS
JAMESTOWN      CLOUDY   -10 -14  82 SE3       30.35S
BISMARCK       CLOUDY   -16 -20  82 NE6       30.31F WCI -31
MINOT          CLOUDY   -18 -22  82 S5        30.28F WCI -31
MINOT AFB      CLOUDY   -23 -29  73 SE5       30.28F WCI -36
GARRISON         N/A    -10 -14  82 E9        30.24F WCI -27
WILLISTON      CLOUDY    -3  -9  75 E7        30.17F WCI -16
DICKINSON      CLOUDY    -4  -9  79 SE16      30.07F WCI -25
HETTINGER      CLOUDY    -4  -9  79 SE13      30.07F WCI -23
$$

 *****  OTHER OBSERVATIONS NORTHEAST NORTH DAKOTA  *****

CITY           SKY/WX    TMP DP  RH WIND       PRES   REMARKS
WALHALLA         N/A    -13 -13 100 CALM      30.45S
LANGDON        FAIR     -13 -18  77 S7        30.35S WCI -29
CAVALIER         N/A     -9 -15  77 S3        30.46S
GRAFTON        FAIR      -9 -15  77 CALM      30.49S
CANDO          FAIR     -11 -17  77 CALM      30.38F
FORT TOTTEN      N/A     -7 -13  76 SE2       29.95S
ROLLA          FAIR     -17 -22  76 SW5       30.30F WCI -29
RUGBY            N/A    -17 -20  83 CALM      30.34S
 ***** THE ABOVE OBSERVATIONS ARE NON NWS ARE NOT QUALITY
        CONTROLLED AND MAY MIS-REPORT RAIN FOR SNOW...
$$

 *****  OTHER OBSERVATIONS SOUTHEAST NORTH DAKOTA *****

CITY           SKY/WX    TMP DP  RH WIND       PRES   REMARKS
COOPERSTOWN    FAIR     -11 -17  77 CALM      30.38R
VALLEY CITY    FAIR      -9 -13  84 CALM      30.39R
OAKES          NOT AVBL
GWINNER        CLOUDY    -4  -8  84 E5        30.39F WCI -15
SHEYENNE NWR     N/A     -7 -15  69 E3        29.95S
BUFFALO        NOT AVBL
WYNDMERE       NOT AVBL
 ***** THE ABOVE OBSERVATIONS ARE NON NWS ARE NOT QUALITY
       CONTROLLED AND MAY MIS-REPORT RAIN FOR SNOW...
$$

  *****  WEATHER ACROSS NORTHERN MINNESOTA  *****

CITY           SKY/WX    TMP DP  RH WIND       PRES   REMARKS
FLAG ISLAND    PTSUNNY   -6  -9  84 NW5       30.41S WCI -17
WARROAD        CLOUDY    -9 -15  77 W3        30.43S
ROSEAU         CLOUDY    -6 -11  77 W3        30.44S HAZE
HALLOCK        CLOUDY    -9 -15  77 CALM      30.46F
THF RVR FALLS  FLURRIES  -2  -7  79 CALM      30.44F
HALSTAD          N/A    -12 -17  79 E3          N/A
FOSSTON        CLOUDY    -6 -11  77 CALM      30.42F
BAUDETTE       MOSUNNY   -8 -12  83 CALM      30.40S
WASKISH        SUNNY     -2  -6  84 CALM      30.41S
CROOKSTON      FLURRIES  -9 -15  77 SE6       30.47S WCI -23
$$
  *****  WEATHER ACROSS CENTRAL AND WEST MINNESOTA  *****

CITY           SKY/WX    TMP DP  RH WIND       PRES   REMARKS
BEMIDJI        CLOUDY   -11 -15  82 CALM      30.40S
PARK RAPIDS    CLOUDY   -13 -18  78 NW3       30.38F
WADENA         CLOUDY    -6  -9  84 CALM      30.39S
DETROIT LAKES  CLOUDY    -9 -13  84 CALM      30.38F FOG
MOORHEAD       MIX PCPN  -8 -13  77 E3        30.44F
FERGUS FALLS   CLOUDY    -6 -11  77 SE3       30.48R
ELBOW LAKE     FAIR      -7 -11  83 CALM      30.42S
MORRIS MN      CLOUDY    -4  -9  77 CALM      30.41S
STAPLES        NOT AVBL
WHEATON        CLOUDY    -2  -8  78 CALM      30.45S
$$
  *****  WEATHER ELSEWHERE ACROSS MINNESOTA  *****

CITY           SKY/WX    TMP DP  RH WIND       PRES   REMARKS
DULUTH         CLOUDY     1  -6  72 NW6       30.39F WCI -10
INTRNTL FALLS  SUNNY     -5 -10  79 CALM      30.41S
ELY            SUNNY     -2  -8  78 W6        30.38S WCI -14
CLOQUET        CLOUDY     1  -6  71 W5        30.41S WCI  -8
BRAINERD       CLOUDY     0  -4  83 SW5       30.41F WCI -10
HIBBING        SUNNY     -2  -7  79 CALM      30.40F
ALEXANDRIA     CLOUDY    -2  -6  83 CALM      30.39S
SAINT CLOUD    CLOUDY     2  -2  83 CALM      30.44F
MINNEAPOLIS    CLOUDY     7   0  73 CALM      30.47F
$$

  *****  WEATHER ACROSS SOUTH DAKOTA  *****

CITY           SKY/WX    TMP DP  RH WIND       PRES   REMARKS
SIOUX FALLS    LGT SNOW  11   8  88 E12       30.31F FOG     WCI  -3
BROOKINGS      LGT SNOW   5   0  79 SE10      30.30F VSB 1   WCI -10
WATERTOWN      LGT SNOW   1  -3  83 E7        30.29S FOG     WCI -12
HURON          SNOW       7   4  87 E7        30.32F VSB 1/2 WCI  -5
SISSETON         N/A     -4  -9  79 VRB3      30.40F
ABERDEEN       CLOUDY    -2 -11  65 NE7       30.38S WCI -15
MITCHELL       LGT SNOW  12   9  87 E10       30.30F FOG     WCI  -1
PIERRE         LGT SNOW   2  -3  80 E14       30.21F WCI -16
MOBRIDGE       LGT SNOW   0  -8  69 E10       30.21F WCI -16
RAPID CITY     CLOUDY     2  -1  88 SE9       29.98F WCI -13
$$

  *****  SOME WEATHER IN NEARBY STATES *****

CITY           SKY/WX    TMP DP  RH WIND       PRES   REMARKS
GLASGOW MT     LGT SNOW  -1  -7  75 E14       30.01S VSB 3/4 WCI -20
GREAT FALLS MT CLOUDY     2  -2  83 CALM      29.72F
CHEYENNE WY    CLOUDY    47  20  34 W21G40    29.85F
SCOTTSBLUFF NE CLOUDY    18  13  80 SE9       29.87F WCI   7
OMAHA NE       FLURRIES  25  18  74 SE10      30.36F WCI  15
DES MOINES IA  LGT SNOW  24  17  74 S12       30.43F WCI  13
DAVENPORT IA   CLOUDY    22  14  71 SW7       30.52S WCI  13
CHICAGO IL     PTSUNNY   22  14  71 W7        30.51F WCI  13
EAU CLAIRE WI  SUNNY      9   2  73 W5        30.46S WCI   1
LA CROSSE WI   PTSUNNY   13   6  74 CALM      30.50S
$$

  *****  SOME NATIONAL WEATHER *****

CITY           SKY/WX    TMP DP  RH WIND       PRES   REMARKS
LA GUARDIA NY  PTSUNNY   34  20  56 NW15      30.39F WCI  24
RALEIGH NC     SUNNY     35  15  44 VRB3      30.56F
ATLANTA GA     SUNNY     39  18  42 NE6       30.53F
NEW ORLEANS LA MOSUNNY   45  27  49 E14       30.54F
OKLAHOMA CITY  CLOUDY    37  22  54 S22G32    30.31F
ALBUQUERQUE NM CLOUDY    35  27  72 CALM      30.25F
SALT LAKE CITY LGT RAIN  41  39  93 E7        29.94F FOG
LOS ANGELES CA CLOUDY    55  54  96 NE6       30.17S FOG
BOISE ID       CLOUDY    35  34  96 SE8       29.85S FOG
SEATTLE WA     MOCLDY    38  36  92 SE12      29.86S
$$

*** WEATHER ACROSS MANITOBA...SASKATCHEWAN AND ONTARIO ***
                ***ONTARIO***

CITY           SKY/WX    TMP DP  RH WIND       PRES   REMARKS
GERALDTON      PTSUNNY   -2  -8  78 VRB2      30.31S
THUNDER BAY    MOSUNNY    7  -2  66 W8        30.42S WCI  -6
SIOUX LOOKOUT  CRYSTALS  -6 -11  77 NW5       30.35S WCI -17
TORONTO        FLURRIES  25  19  80 SE2       30.34S
BIG TROUT LK   FLURRIES  -9 -15  77 W10G17    30.34S WCI -28
PICKLE LAKE    LGT SNOW  -6  -9  84 N3        30.33R
DRYDEN         SUNNY     -8 -11  84 W5        30.35S WCI -19
KENORA         LGT SNOW  -4  -8  84 W6        30.37S FOG     WCI -16
$$
                *** MANITOBA***

CITY           SKY/WX    TMP DP  RH WIND       PRES   REMARKS
BRANDON        PTCLDY   -20 -26  76 W6        30.36S WCI -36
DAUPHIN        CLEAR    -22 -27  76 W7        30.38F WCI -39
ISLAND LAKE    FLURRIES  -6  -9  84 SW7       30.38F WCI -20
PILOT MOUND      N/A    -17 -22  76 S5          N/A  WCI -29
THE PAS        PTCLDY   -11 -17  77 SW6       30.34F WCI -25
THOMPSON       FLURRIES  -4  -9  77 SW6       30.30F WCI -16
WINNIPEG       MOSUNNY  -11 -17  77 SW3       30.47S
LYNN LAKE      LGT SNOW -11 -15  84 SW6       30.18F WCI -25
CHURCHILL      MOCLDY   -13 -18  77 W12G17    30.23F WCI -33
GILLAM         FLURRIES  -6 -11  77 SW7       30.32F WCI -20
$$
                ***SASKATCHEWAN***

CITY           SKY/WX    TMP DP  RH WIND       PRES   REMARKS
ESTEVAN        CLOUDY   -20 -26  76 E9        30.22F WCI -40
KINDERSLEY     PTCLDY    -6  -9  84 E17       30.00F WCI -28
LLOYDMINSTER   CRYSTALS -22 -27  76 E5        30.07F WCI -36
PRINCE ALBERT  CRYSTALS -20 -26  76 NE2       30.24F
REGINA         MOCLDY   -17 -22  76 SE12      30.19F WCI -38
YORKTON        CLEAR    -17 -22  76 S5        30.28F WC1F1C2F2C3F3C4F4C5F5C6F6C7F7C8F8C9F9CaFaCbFbCcFcCdFdCe!



USA.gov is the U.S. government's official web portal to all federal, state and local government web resources and services.